Orbital Elements at Epoch 2459000.5 (2020-May-31.0) TDB
Reference: JPL 26 (heliocentric ecliptic J2000)
Element | Value | Uncertainty (1-sigma) | Units |
e | .08914186256100612 | 4.4554e-08 | |
a | 3.170577169224958 | 1.9475e-08 | au |
q | 2.887946014966843 | 1.4613e-07 | au |
i | 22.96691072881913 | 6.2284e-06 | deg |
node | 47.68557474551175 | 1.0968e-05 | deg |
peri | 89.52588273098428 | 4.1405e-05 | deg |
M | 301.5813621895063 | 3.7664e-05 | deg |
tp | 2459335.122272382482 (2021-Apr-30.62227238) | 0.00021581 | TDB |
period | 2062.081941185806 5.65 | 1.9e-05 5.202e-08 | d yr |
n | .1745808412409552 | 1.6086e-09 | deg/d |
Q | 3.453208323483073 | 2.1211e-08 | au |
|
| | Orbit Determination Parameters
Additional Information
|